TIANMU-1 17

Last updated on Thu Nov 21 2024 00:02:20 GMT+0000 (Coordinated Universal Time)

1 58702U 24004C 24325.55983333 .00010151 00000+0 49777-3 0 9991 2 58702 97.4580 144.1028 0006673 212.1205 147.9623 15.18295647 48464
UTC large
Height (km)
Speed (km/s)
/
Latitude / Longitude
Inclination (degrees)
Orbital Period (minutes)
Azimuth
Elevation
Range (km)
Doppler Factor

Next 0 passes for location: London (51.5072 / 0.1276)

Sorry there are no passes over London.